FW6138 Weather Reports


time (UTC)temp
C
wind
direction
speed
KPH
gust
KPH
rain 1hr
cm
rain 24hr
cm
rain mn
cm
humidity
%
barometer
mb
20260503184612 24 346 1.6 6.4 0.00 0.00 0.00 53 1014.5
20260503183029 23 359 1.6 6.4 0.00 0.00 0.00 54 1014.7
20260503181529 23 353 1.6 6.4 0.00 0.00 0.00 54 1014.8
20260503180037 22 309 1.6 6.4 0.00 0.00 0.00 54 1015.0
20260503174530 22 326 1.6 4.8 0.00 0.00 0.00 55 1015.1
20260503171530 22 115 0.0 3.2 0.00 0.00 0.00 57 1015.4
20260503150112 12 150 1.6 4.8 0.00 0.00 0.00 94 1016.6
20260503110107 8 159 0.0 3.2 0.00 0.00 0.00 95 1016.2
20260503071606 11 157 0.0 0.0 0.00 0.00 0.00 92 1015.7
20260503060106 12 159 0.0 4.8 0.00 0.00 0.00 91 1015.4
20260503054530 13 180 1.6 4.8 0.00 0.00 0.00 91 1015.5
20260503051537 13 180 0.0 1.6 0.00 0.00 0.00 91 1015.4
20260503050033 13 162 1.6 6.4 0.00 0.00 0.00 90 1015.3
20260503044539 13 117 0.0 3.2 0.00 0.00 0.00 89 1015.3
20260503043031 14 22 0.0 0.0 0.00 0.00 0.00 88 1015.1
20260503041530 15 22 0.0 0.0 0.00 0.00 0.00 86 1014.8
20260503040033 15 22 0.0 0.0 0.00 0.00 0.00 85 1014.6
20260503034533 16 22 0.0 0.0 0.00 0.00 0.00 84 1014.2
20260503033033 16 22 0.0 0.0 0.00 0.00 0.00 83 1013.9
20260503031607 17 22 0.0 0.0 0.00 0.00 0.00 83 1013.5
20260503030029 18 22 0.0 0.0 0.00 0.00 0.00 82 1013.2
20260503024530 19 22 0.0 0.0 0.00 0.00 0.00 81 1013.0
20260503023035 20 22 0.0 0.0 0.00 0.00 0.00 78 1012.9
20260503021533 21 22 0.0 0.0 0.00 0.00 0.00 74 1012.8
20260503020032 22 22 0.0 0.0 0.00 0.00 0.00 71 1012.6
20260503014537 22 22 0.0 0.0 0.00 0.00 0.00 66 1012.6
20260503013030 23 22 0.0 1.6 0.00 0.00 0.00 64 1012.6
20260503011528 23 22 0.0 3.2 0.00 0.00 0.00 61 1012.6
20260503010058 24 22 0.0 0.0 0.00 0.00 0.00 56 1012.6
20260503004529 25 22 0.0 4.8 0.00 0.00 0.00 52 1012.5
20260503003035 26 11 0.0 4.8 0.00 0.00 0.00 51 1012.5
20260503001537 26 336 1.6 6.4 0.00 0.00 0.00 50 1012.5
20260503000033 27 343 0.0 4.8 0.00 0.00 0.00 47 1012.6
20260502234531 28 198 1.6 6.4 0.00 0.00 0.00 42 1012.8
20260502233033 27 167 1.6 8.0 0.00 0.00 0.00 43 1012.9
20260502231531 27 272 0.0 8.0 0.00 0.00 0.00 46 1013.2
20260502224531 27 320 4.8 11.3 0.00 0.00 0.00 47 1013.6
20260502220105 25 105 1.6 4.8 0.00 0.00 0.00 52 1014.3
20260502213031 23 222 3.2 9.7 0.00 0.00 0.00 58 1014.8
20260502210107 22 44 1.6 4.8 0.00 0.00 0.00 62 1015.3
20260502203112 20 291 4.8 9.7 0.00 0.00 0.00 67 1015.5
20260502201531 19 164 1.6 6.4 0.00 0.00 0.00 71 1015.7
20260502200028 17 265 3.2 9.7 0.00 0.00 0.00 74 1016.0
20260502194531 16 314 4.8 9.7 0.00 0.00 0.00 76 1016.1
20260502193030 16 348 1.6 8.0 0.00 0.00 0.00 75 1016.4
20260502191529 17 332 3.2 8.0 0.00 0.00 0.00 74 1016.8
20260502190029 17 356 3.2 9.7 0.00 0.00 0.00 73 1017.0